{"data":{"norad_id":65287,"epoch":"2026-09-19T21:40:48.480960Z","epoch_age_seconds":169368,"freshness":"FRESH","line1":"1 65287U 25184Q   26262.90333890  .00015120  00000+0  46957-3 0  9993","line2":"2 65287  97.2855 310.8889 0000595  84.7898 275.3413 15.33456625 60579","mean_motion":15.33456625,"eccentricity":5.95e-5,"inclination_deg":97.2855,"raan_deg":310.8889,"arg_perigee_deg":84.7898,"mean_anomaly_deg":275.3413,"bstar":0.00046957,"rev_number":6057,"period_min":93.905492762144,"perigee_km":465.1013899631,"apogee_km":465.91578378794,"semimajor_km":6843.6455868755,"source":"CELESTRAK","updated_at":"2026-09-21T09:00:35.566509Z"}}